Location: Prague
(50.0830°N, 14.4670°E)
Time: 07:46:39
(UTC+02:00)

X-37B - Pass Details

Date: 28 September 2021
Orbit: 342 x 346 km, 45.0° (Epoch: 22 October)

Event Time Altitude Azimuth Distance (km) Brightness Sun altitude
Exits shadow 04:31:09 13° 119° (ESE) 1,120 3.3 -23.5°
Drops below altitude 10° 04:31:42 10° 112° (ESE) 1,294 3.7 -23.5°
Sets 04:33:58 0° 96° (E) 2,137 5.2 -23.1°
